GEFSMW_con_prob3kmehi_156.txt.gz
EHI
83 84 83 80 79 79 78 75 70 68 70 68 62 56 52 48 44 43 40 32 26 21 16 17 19 15 12 8 6 4 2 1 0 0 1 1 2 3 4 3 2 1 0
85 86 85 80 78 77 75 72 68 66 67 64 58 54 53 49 44 44 41 33 27 23 18 18 18 15 14 11 8 5 3 1 0 0 1 1 1 1 2 2 3 2 1
86 87 84 78 73 71 67 65 65 64 62 58 51 47 48 45 40 41 38 31 27 24 20 20 18 15 14 13 10 6 3 1 0 0 0 0 0 0 0 1 2 2 2
83 82 79 74 68 62 58 60 63 62 58 51 43 39 38 36 36 37 36 31 28 25 23 20 19 14 12 13 11 7 4 1 0 0 0 0 0 0 0 0 1 1 2
78 77 75 73 66 56 52 56 61 60 55 48 41 37 35 35 36 37 38 36 31 26 21 19 18 14 12 15 14 8 4 1 1 1 1 0 0 0 0 0 0 0 1
74 73 73 71 64 54 49 52 56 57 53 46 40 37 36 36 36 37 38 36 30 24 18 17 17 15 14 16 15 9 4 2 2 2 1 0 0 0 0 0 0 0 0
70 69 69 66 60 52 49 50 52 52 49 43 38 36 34 32 31 31 30 28 24 21 19 17 17 16 16 14 11 7 4 3 3 3 2 1 0 0 0 0 0 0 0
66 65 64 60 54 50 48 47 47 46 44 41 38 36 31 27 25 24 22 19 19 20 20 20 17 16 14 11 9 6 5 4 4 3 3 2 1 0 0 0 0 0 0
57 59 59 56 53 50 46 43 42 42 40 39 38 34 30 27 23 20 17 16 18 19 20 19 17 15 13 11 9 6 5 5 4 3 2 2 1 1 0 0 0 0 0
49 53 55 56 55 52 46 41 40 39 37 35 33 30 29 28 24 19 17 18 21 22 21 19 16 14 13 12 11 7 6 6 4 2 1 0 1 1 0 0 0 0 0
43 48 52 55 56 52 46 42 39 35 34 32 29 26 26 26 23 18 19 23 27 26 23 20 17 14 14 14 11 7 5 5 3 1 0 0 0 0 0 0 0 0 0
39 42 47 53 56 52 49 46 39 33 31 31 29 26 26 25 20 16 19 25 29 28 23 20 17 14 14 13 10 6 5 3 1 0 0 0 0 0 0 0 0 0 0
40 41 45 53 57 56 54 50 40 32 30 31 31 30 28 25 19 16 19 25 28 25 21 18 15 13 12 11 8 7 5 2 0 0 0 0 0 0 0 0 0 0 0
47 48 51 54 58 60 59 53 43 34 31 32 32 31 28 24 20 18 21 25 26 23 19 17 14 11 9 7 6 6 4 1 0 0 0 0 0 0 0 0 0 0 0
48 52 56 57 59 61 61 57 49 42 39 37 35 33 30 26 23 23 25 26 24 22 20 17 13 8 5 4 3 3 2 0 0 0 0 0 0 0 0 0 0 0 0
46 52 57 58 58 61 63 61 58 54 48 43 40 38 35 29 26 26 28 26 23 22 21 17 10 4 2 1 1 1 1 0 1 1 1 0 0 0 0 0 0 0 0
48 52 55 56 56 59 62 62 60 58 52 44 42 41 38 33 28 27 30 32 28 24 22 16 8 2 1 0 0 0 0 1 2 3 2 1 0 0 0 0 0 0 0
49 53 55 55 56 58 59 59 58 56 50 43 43 45 44 38 33 32 38 43 40 32 26 18 9 4 2 0 0 0 0 2 4 3 2 1 0 0 0 0 0 0 0
45 52 56 56 59 60 58 58 58 55 49 45 47 53 53 48 43 43 51 56 53 43 31 20 12 7 4 1 0 0 0 1 2 2 1 1 1 0 0 0 0 0 0
38 45 53 57 61 61 58 56 54 53 50 48 53 60 64 60 55 57 63 64 58 45 30 20 15 13 9 3 0 0 0 0 1 1 0 0 0 0 0 0 0 0 0
29 35 45 53 59 60 58 54 52 51 50 50 55 63 66 62 58 63 69 65 53 39 27 20 17 15 11 4 0 0 0 0 0 0 0 0 0 0 0 0 0 0 0
25 29 38 46 52 56 57 57 56 53 51 51 54 59 62 57 53 60 64 57 43 30 24 21 18 15 10 4 0 0 0 0 1 0 0 0 0 0 0 0 0 0 0
26 28 33 39 44 49 54 57 58 56 53 54 55 57 58 54 50 51 50 43 32 22 18 18 16 14 10 5 2 0 0 0 0 0 0 0 0 0 0 0 0 0 0
24 25 29 35 40 43 47 53 55 55 55 56 56 55 54 52 48 42 36 31 25 19 17 16 15 12 9 6 3 2 0 0 0 0 0 0 0 0 0 0 0 0 0
22 23 25 29 33 35 40 46 51 55 56 57 57 54 50 46 43 36 26 21 19 15 14 13 11 8 5 4 4 3 1 0 0 0 0 0 0 0 0 0 0 0 0
24 23 22 22 25 30 35 41 48 54 57 57 57 55 48 45 40 32 22 15 11 9 8 9 8 5 2 1 2 2 1 0 0 0 0 0 0 0 0 0 0 0 0

GEFSMW_con_prob3kmehi_162.txt.gz
EHI
69 72 75 73 69 65 62 59 53 43 34 30 29 26 21 18 14 10 8 10 11 7 3 1 0 0 0 0 0 0 0 0 0 0 0 0 0 0 0 0 0 0 0
74 74 75 73 71 66 62 58 52 43 34 29 27 24 21 19 16 11 9 10 11 9 5 2 0 0 0 0 0 0 0 0 0 0 0 0 0 0 0 0 0 0 0
77 75 73 71 70 67 63 57 50 42 35 29 25 22 20 19 16 13 9 9 10 10 6 3 2 0 0 0 0 0 0 0 0 0 0 0 0 0 0 0 0 0 0
75 74 70 68 68 67 63 58 51 43 36 30 26 23 19 16 14 12 10 8 9 8 6 5 4 1 0 0 0 0 0 0 0 0 0 0 0 0 0 0 0 0 0
73 71 68 66 66 66 64 59 52 44 38 31 26 23 18 13 12 11 10 9 8 7 6 6 5 2 0 0 0 0 0 0 0 0 0 0 0 0 0 0 0 0 0
67 67 67 66 65 65 63 57 50 44 38 31 25 21 17 14 13 12 10 9 9 7 7 7 6 3 1 0 0 0 0 0 0 0 0 0 0 0 0 0 0 0 0
59 61 65 65 64 62 58 52 47 43 38 31 24 20 18 15 14 13 11 10 9 7 7 7 6 3 1 1 0 0 0 0 0 0 0 0 0 0 0 0 0 0 0
48 53 58 61 60 56 52 48 45 42 37 29 23 19 17 14 12 11 10 9 8 7 6 6 5 4 3 2 1 0 0 0 0 0 0 0 0 0 0 0 0 0 0
39 44 48 51 52 50 47 44 42 39 32 25 19 16 14 13 11 10 9 8 7 7 6 6 5 4 3 2 1 0 0 0 0 0 0 0 0 0 0 0 0 0 0
34 36 39 42 44 44 42 40 38 33 24 19 16 14 13 13 11 9 8 7 7 6 6 7 7 5 4 3 1 0 0 0 0 0 0 0 0 0 0 0 0 0 0
29 31 34 35 37 39 37 34 32 27 19 15 15 15 14 13 11 10 8 6 6 6 6 7 8 7 5 3 1 0 0 0 0 0 0 0 0 0 0 0 0 0 0
23 26 29 30 32 33 31 29 27 24 19 16 16 17 15 13 12 10 8 6 6 6 6 7 8 7 5 3 1 0 0 0 0 0 0 0 0 0 0 0 0 0 0
22 23 26 28 28 28 27 26 25 24 21 19 19 18 16 13 11 10 8 6 5 5 5 6 7 7 6 4 2 1 0 0 1 1 1 0 0 0 0 0 0 0 0
26 26 26 27 25 24 24 24 25 25 23 21 20 18 15 12 11 10 8 6 5 4 3 4 5 5 6 6 4 2 1 0 1 2 1 0 0 0 0 0 0 0 0
28 28 27 25 21 18 19 23 26 26 24 22 19 15 12 9 8 8 6 4 3 2 2 2 2 3 4 5 4 2 1 0 1 1 1 0 0 0 0 0 0 0 0
23 25 25 22 19 15 16 20 24 25 24 21 16 11 7 5 5 5 3 2 1 1 1 1 0 1 2 2 1 1 0 0 0 0 0 0 0 0 0 0 0 0 0
20 23 23 21 18 15 13 15 18 20 20 18 13 7 3 2 2 2 2 1 0 0 0 0 0 0 0 0 0 0 0 0 0 0 0 0 0 0 0 0 0 0 0
20 21 21 20 19 16 12 12 13 14 14 13 9 5 2 0 1 1 1 1 1 1 1 1 0 0 0 0 0 0 0 0 0 0 0 0 0 0 0 0 0 0 0
18 17 17 19 20 17 14 13 12 11 9 7 6 3 1 0 0 1 2 3 3 3 3 2 1 0 0 0 0 0 0 0 0 0 0 0 0 0 0 0 0 0 0
14 13 15 19 20 18 15 14 13 9 5 3 3 3 2 2 1 1 3 4 4 4 4 3 1 0 0 0 0 0 0 0 0 0 0 0 0 0 0 0 0 0 0
13 14 15 17 17 17 16 14 12 9 5 4 5 6 5 4 3 3 3 4 4 4 3 3 2 1 0 0 0 0 0 0 0 0 0 0 0 0 0 0 0 0 0
14 14 14 13 13 15 16 14 12 10 7 6 8 9 8 6 5 4 4 5 4 3 3 3 3 2 1 0 0 0 0 0 0 0 0 0 0 0 0 0 0 0 0
13 13 13 11 10 11 12 11 11 10 10 10 11 11 9 7 6 6 6 7 6 5 4 4 4 3 2 1 0 0 0 0 0 0 0 0 0 0 0 0 0 0 0
10 11 13 12 11 9 8 7 7 8 10 12 14 13 11 8 6 6 7 7 8 7 6 6 6 5 5 3 1 1 0 0 0 0 0 0 0 0 0 0 0 0 0
9 10 12 12 11 9 7 5 4 6 8 11 15 14 11 7 4 4 4 4 5 6 6 5 5 6 5 4 2 1 0 0 0 0 0 0 0 0 0 0 0 0 0
8 8 9 11 11 8 6 4 4 4 5 9 12 13 10 7 4 2 1 1 2 3 3 3 4 4 4 2 1 1 0 0 0 0 0 0 0 0 0 0 0 0 0

GEFSMW_con_prob3kmehi_168.txt.gz
EHI
39 42 43 40 35 27 19 15 10 6 3 3 3 3 1 0 0 0 0 0 0 1 0 0 0 0 0 0 0 0 0 0 0 0 0 0 0 0 0 0 0 0 0
41 44 47 46 42 34 25 17 10 6 4 3 3 3 2 1 0 0 0 0 1 1 1 0 0 0 0 0 0 0 0 0 0 0 0 0 0 0 0 0 0 0 0
43 47 52 52 49 43 33 21 12 8 6 5 5 5 4 2 1 0 0 0 1 2 2 1 0 0 0 0 0 0 0 0 0 0 0 0 0 0 0 0 0 0 0
41 45 51 53 51 46 38 27 18 13 9 8 9 9 7 4 2 1 0 0 1 2 3 2 1 0 0 0 0 0 0 0 0 0 0 0 0 0 0 0 0 0 0
38 40 45 51 50 45 40 33 25 19 14 11 11 12 10 6 4 3 1 0 1 2 3 3 2 1 1 0 0 0 0 0 0 0 0 0 0 0 0 0 0 0 0
35 36 40 46 48 45 42 38 31 26 20 15 12 11 10 7 6 5 3 2 2 2 2 3 3 3 2 1 1 0 0 0 0 0 0 0 0 0 0 0 0 0 0
31 32 36 42 45 45 44 40 34 30 26 19 13 11 9 8 6 6 6 5 4 3 2 2 3 3 3 3 2 1 0 0 0 0 0 0 0 0 0 0 0 0 0
27 29 34 39 43 46 46 41 34 31 27 22 17 13 10 8 7 7 6 6 5 5 3 2 1 1 2 3 3 1 0 0 0 0 0 0 0 0 0 0 0 0 0
22 26 31 36 40 44 44 39 34 31 28 24 20 15 10 8 7 6 6 5 5 5 4 3 1 0 1 2 2 1 0 0 0 0 0 0 0 0 0 0 0 0 0
17 23 28 32 36 39 39 35 31 29 26 23 19 14 8 5 5 5 4 4 4 4 4 4 3 1 0 1 1 1 0 0 0 0 0 0 0 0 0 0 0 0 0
14 18 24 29 32 34 34 32 28 25 23 20 17 13 8 4 4 4 3 3 3 3 4 6 5 3 1 1 0 0 0 0 0 0 0 0 0 0 0 0 0 0 0
11 14 21 26 29 30 30 30 27 23 19 18 17 14 9 6 5 4 4 3 3 4 5 6 6 5 4 2 1 0 0 0 0 0 0 0 0 0 0 0 0 0 0
10 13 17 22 25 24 24 25 25 22 17 15 15 14 11 9 8 7 6 4 4 5 6 6 6 6 5 3 1 0 0 0 0 0 0 0 0 0 0 0 0 0 0
10 11 14 17 19 20 19 20 21 20 17 15 14 13 12 11 10 9 7 4 4 5 4 4 5 6 6 4 2 1 0 0 0 0 0 0 0 0 0 0 0 0 0
7 7 8 11 15 16 15 16 17 17 16 15 14 13 13 12 11 10 7 5 4 4 3 3 4 5 5 4 2 1 1 0 0 0 0 0 0 0 0 0 0 0 0
4 3 3 6 10 12 13 13 13 12 13 13 13 12 12 11 10 8 6 4 3 2 2 2 2 3 3 2 1 1 1 0 0 0 0 0 0 0 0 0 0 0 0
2 1 1 2 5 8 10 10 9 9 9 9 10 10 8 7 6 4 3 3 2 1 1 1 0 1 1 0 0 0 0 0 0 0 0 0 0 0 0 0 0 0 0
1 0 0 0 2 4 6 7 7 7 7 7 7 7 5 3 2 1 1 1 1 0 0 0 0 0 0 0 0 0 0 0 0 0 0 0 0 0 0 0 0 0 0
0 0 0 0 1 3 4 5 6 6 5 4 5 5 5 3 1 0 0 0 0 0 0 0 0 0 0 0 0 0 0 0 0 0 0 0 0 0 0 0 0 0 0
0 1 1 1 1 2 3 4 4 5 4 3 4 5 5 4 2 1 0 0 0 0 0 0 0 0 0 0 0 0 0 0 0 0 0 0 0 0 0 0 0 0 0
0 1 2 2 2 3 4 3 3 3 3 2 3 4 5 4 3 1 0 0 0 0 0 0 0 0 0 0 0 0 0 0 0 0 0 0 0 0 0 0 0 0 0
1 2 3 2 2 4 5 4 3 3 2 1 1 2 3 3 1 1 0 0 0 0 0 0 0 0 0 0 0 0 0 0 0 0 0 0 0 0 0 0 0 0 0
2 3 3 3 2 4 5 4 3 3 2 1 0 0 1 1 0 0 0 0 0 0 1 1 1 0 0 0 0 0 0 0 0 0 0 0 0 0 0 0 0 0 0
3 3 3 3 2 3 4 3 3 3 2 1 0 0 0 0 0 1 1 0 0 1 1 2 1 0 0 0 0 0 0 0 0 0 0 0 0 0 0 0 0 0 0
3 3 3 2 2 3 3 3 4 3 2 1 0 0 0 1 1 1 1 0 0 1 1 1 1 0 0 0 0 1 0 0 0 0 0 0 0 0 0 0 0 0 0
2 2 2 1 1 2 3 4 4 3 2 2 1 0 0 1 1 1 1 0 0 1 0 0 0 0 0 0 0 1 0 0 0 0 0 0 0 0 0 0 0 0 0

GEFSMW_con_prob3kmehi_174.txt.gz
EHI
43 50 55 50 43 40 43 45 43 40 36 31 23 17 14 12 8 5 3 1 1 1 1 1 1 1 1 1 0 0 0 0 0 0 0 0 0 0 0 0 0 0 0
43 52 59 56 50 48 49 50 46 41 37 32 24 18 15 12 7 5 3 1 1 1 1 1 1 1 2 2 2 1 0 0 0 0 0 0 0 0 0 0 0 0 0
44 53 61 60 57 54 54 52 49 42 37 33 25 19 16 10 6 5 3 2 2 2 1 1 0 0 1 2 3 2 0 0 0 0 0 0 0 0 0 0 0 0 0
41 50 60 62 60 56 53 52 48 41 37 34 27 20 14 8 6 5 5 6 5 2 1 0 0 0 0 1 1 1 0 0 0 0 0 0 0 0 0 0 0 0 0
37 46 57 63 63 57 53 51 47 40 35 33 29 21 14 9 10 10 10 11 9 4 1 1 0 0 0 0 0 1 1 0 0 0 0 0 0 0 0 0 0 0 0
33 42 53 61 63 59 54 51 47 41 35 32 28 23 18 16 18 17 14 13 12 7 3 2 0 0 0 0 1 2 2 1 1 1 0 0 0 0 0 0 0 0 0
30 38 50 58 60 58 55 51 48 44 38 33 30 26 22 20 20 19 15 13 11 9 6 4 2 1 0 0 2 3 2 2 2 2 1 1 0 0 0 0 0 0 0
25 32 43 50 52 54 54 53 50 47 42 38 34 29 23 19 17 17 14 12 10 8 7 7 5 3 2 2 3 3 2 2 3 2 2 2 1 0 0 0 0 0 0
18 22 31 37 42 47 51 51 51 49 45 41 36 31 24 17 15 15 14 13 11 9 9 10 8 6 5 5 6 4 2 3 3 3 3 3 1 0 0 0 0 0 0
12 16 23 29 34 40 45 48 50 48 44 40 36 31 24 18 14 12 11 11 11 12 12 11 10 8 8 8 8 4 2 2 4 4 4 3 2 1 1 0 1 1 1
11 15 22 29 33 34 40 46 49 47 43 40 36 31 24 19 15 11 8 8 10 11 13 13 11 9 9 10 8 4 1 2 4 5 4 3 3 4 3 2 3 3 3
12 16 23 30 32 33 39 47 48 45 43 41 37 32 25 20 16 12 9 8 9 10 12 14 14 11 11 11 8 4 1 2 3 4 4 3 4 6 6 5 5 5 5
17 20 24 27 29 32 39 43 42 39 38 39 36 32 27 21 16 11 9 9 11 12 12 15 15 13 12 13 10 5 3 3 2 2 4 4 4 5 6 6 6 6 4
21 24 27 26 25 29 35 36 35 33 34 35 33 30 27 23 18 13 10 11 12 14 15 15 15 13 12 12 10 7 5 5 4 4 4 4 3 4 4 5 5 6 5
24 27 28 27 25 26 31 32 31 32 34 33 29 27 27 26 23 19 16 15 14 16 17 16 14 11 9 8 7 6 7 8 8 8 7 4 3 2 2 3 4 5 6
24 26 27 27 26 28 33 34 32 32 33 30 27 26 28 28 26 25 23 22 19 17 17 17 16 12 8 4 3 4 7 9 10 10 9 6 3 2 1 1 1 3 3
22 24 26 27 26 29 34 35 33 31 29 26 23 23 25 25 24 23 24 24 23 21 19 18 17 13 7 2 0 1 5 8 10 11 11 8 5 3 2 1 1 1 1
21 22 24 25 25 26 30 33 33 30 26 21 19 19 20 20 19 21 23 24 23 22 20 18 16 13 7 2 0 0 2 7 10 10 10 9 7 4 3 2 2 2 1
21 20 20 21 22 23 26 31 32 30 26 20 18 18 18 17 18 22 24 24 22 19 17 15 13 11 6 2 0 0 2 6 9 10 8 7 6 3 1 2 3 4 4
20 18 17 19 21 24 27 28 28 28 25 22 21 20 19 18 19 22 24 23 19 15 13 12 11 9 5 1 0 1 3 6 9 10 9 6 3 1 0 1 4 5 4
18 17 18 22 24 27 27 25 23 23 24 23 23 23 20 17 17 19 21 19 15 13 12 11 9 8 4 1 0 1 3 6 9 11 10 7 2 0 0 1 3 3 2
17 17 19 23 26 26 26 24 19 17 19 20 21 22 20 15 12 14 17 15 13 12 11 11 11 9 5 2 0 0 1 3 7 9 10 7 2 0 0 1 1 1 0
20 20 20 23 23 20 21 21 18 16 16 17 17 19 17 12 9 11 13 12 11 10 10 12 12 10 7 5 2 1 0 1 3 6 6 4 1 0 0 0 0 0 0
25 24 24 25 23 18 18 21 20 18 17 16 16 16 14 11 9 10 10 11 12 12 12 13 13 11 8 6 5 3 2 1 1 2 2 1 0 0 0 0 0 0 0
27 27 27 28 25 20 19 22 22 20 17 16 15 14 12 10 10 10 9 9 9 10 11 11 11 9 5 3 3 3 4 3 1 0 0 0 0 0 0 1 1 1 1
25 26 27 27 24 22 21 22 22 20 16 14 14 12 10 10 10 11 8 5 5 5 6 6 7 7 3 0 1 2 3 2 1 0 1 1 1 0 0 1 1 2 2

GEFSMW_con_prob3kmehi_180.txt.gz
EHI
77 85 90 89 90 92 89 86 85 83 73 59 51 54 56 52 47 50 55 46 28 18 16 17 21 20 19 13 8 7 6 4 4 4 4 4 7 10 12 11 9 8 7
81 87 91 91 92 93 92 90 87 83 75 63 56 58 59 51 44 49 53 43 28 20 17 20 22 21 19 15 11 10 7 5 4 4 4 4 5 7 9 11 10 9 9
84 89 92 92 93 94 93 91 88 84 77 69 62 61 61 52 47 51 52 42 31 24 23 26 26 21 19 18 17 13 9 6 6 6 5 4 4 4 6 8 11 12 11
80 87 91 91 91 92 90 88 87 85 80 74 67 64 60 54 52 55 54 47 38 32 32 34 33 26 22 21 19 16 12 9 7 7 6 5 4 2 2 5 8 10 10
73 81 87 87 88 88 87 85 86 85 81 76 71 66 59 55 55 58 58 54 48 41 40 42 41 36 30 26 23 20 16 12 9 7 7 7 5 3 1 2 3 5 6
69 77 84 86 86 86 85 84 84 83 79 75 70 66 59 56 57 59 59 55 51 47 44 44 47 45 38 34 31 26 20 14 9 8 8 7 5 3 1 0 1 2 4
66 74 83 87 88 86 84 82 82 80 77 73 69 65 59 54 54 55 55 52 47 46 45 45 50 49 42 39 37 30 24 18 12 8 7 6 4 3 1 0 0 2 3
60 69 80 86 88 86 82 80 79 78 77 73 68 63 57 52 51 52 51 49 46 48 49 49 50 49 44 41 37 29 25 23 17 10 7 6 5 4 3 2 1 1 1
51 61 74 83 84 82 79 78 77 76 76 72 66 61 57 53 52 53 52 50 50 51 53 51 47 45 42 40 36 28 24 25 22 15 11 9 8 6 5 4 3 1 1
44 53 68 77 79 77 76 75 74 73 72 68 62 59 57 54 54 55 56 55 54 54 53 50 43 38 37 37 33 26 23 24 23 20 17 15 12 9 7 6 4 3 3
37 45 59 69 73 73 74 74 72 70 68 63 58 56 55 54 54 56 57 56 55 56 54 49 41 34 34 35 30 25 23 23 21 20 19 18 15 12 9 7 5 4 5
32 39 52 63 67 70 72 71 68 67 65 59 55 54 54 54 55 57 56 55 54 54 52 47 40 35 34 35 30 26 25 23 21 19 18 17 16 14 12 9 7 5 5
33 40 52 60 64 66 68 67 65 63 60 56 52 52 54 55 55 57 57 55 54 51 47 44 41 37 36 35 32 29 28 24 21 19 17 15 15 15 13 9 8 7 6
39 46 56 60 62 64 65 64 62 59 57 53 51 51 53 54 55 57 59 57 52 48 44 42 40 37 35 34 33 31 28 24 20 18 16 14 13 13 12 9 8 9 8
43 50 57 59 59 61 62 62 62 60 56 53 52 52 52 52 52 56 58 57 49 41 39 38 34 31 29 27 27 26 24 23 20 17 15 12 9 8 8 6 5 6 7
45 51 56 57 57 57 58 61 63 62 58 54 53 53 52 49 46 49 52 51 44 36 35 33 30 26 21 16 13 16 19 20 19 16 13 9 5 3 3 2 2 2 3
48 51 54 55 56 57 58 59 60 62 61 56 52 51 50 46 41 41 44 44 39 37 36 34 30 26 18 9 4 7 13 17 18 15 11 7 4 2 2 2 0 0 1
50 52 52 52 54 57 58 56 56 59 59 54 50 48 45 41 38 37 38 37 35 36 38 35 30 24 16 7 2 2 7 13 16 14 10 7 5 3 3 3 2 1 0
50 49 47 46 51 55 56 54 53 54 54 50 47 45 41 37 34 33 33 33 33 35 34 30 25 20 13 6 1 1 4 9 13 11 8 6 5 3 3 4 4 3 2
46 45 44 46 50 53 54 53 52 52 51 48 44 42 39 36 33 32 32 33 34 34 30 23 19 16 12 5 1 1 4 7 9 8 6 5 3 1 1 3 5 4 4
42 44 47 50 50 50 52 53 52 50 48 46 42 40 40 38 36 36 36 35 33 31 25 19 15 14 11 6 2 1 3 5 6 7 6 5 2 0 0 1 3 3 3
42 44 48 50 49 49 52 53 51 48 45 43 40 39 38 36 36 38 38 36 32 26 20 15 13 12 11 7 2 0 1 2 4 5 5 4 2 0 0 0 1 1 1
43 44 45 44 45 47 49 50 49 46 43 41 38 35 31 29 30 32 31 29 27 21 14 11 11 11 10 8 4 1 0 0 2 2 2 1 0 0 0 0 0 0 0
43 43 42 42 43 44 44 45 46 45 41 37 33 28 23 22 23 22 18 17 15 13 10 9 10 10 9 9 7 3 1 0 0 0 0 0 0 0 0 0 0 0 0
42 42 42 43 43 41 40 41 43 42 36 30 26 23 20 19 17 13 9 8 7 6 7 7 7 7 7 7 7 5 1 0 0 0 0 0 0 1 1 1 1 0 0
42 42 43 43 41 38 36 37 40 39 32 26 23 21 20 19 15 10 7 4 4 3 3 4 4 3 3 3 4 3 1 0 0 0 0 0 1 2 3 3 2 1 0